Content
SEND FEEDBACK

Daily
Averages
Monthly
Summary
United States of America

POTTS JUNCTION, GUAM


Home > North America > United States > Guam
Elevation: 360 feet     Latitude: 13 33N     Longitude: 144 50E

WEATHER
 
SELECT A DAY
Number of Records: 206,838;   Date Range: 1/1/95 - 4/16/14
 
SHARE

PRINT THIS DATA

[ ← Previous Day ]
WEATHER ALMANAC - APRIL 24, 2013
[ Next Day → ]
[ °C ]   °F
Weather ElementAverageHighLow
Temperature85.3 °F90 °F (11:54 am)80.1 °F (5:54 am)
Dewpoint72.7 °F75 °F (4:54 am)69.1 °F (2:54 pm)
Humidity66.5 %82 % (4:54 am)50 % (2:54 pm)
Barometer29.89 in29.96 in (11:29 am)29.84 in (4:54 am)
Wind Speed13.3 mph21.9 mph (9:54 am)
Wind Gust27.6 mph (9:54 am)
Weather ElementAverage
Visibility10 mi
Wind DirectionENE (74.6 °)

Weather ElementTotal
Precipitation---
Cooling Degree Days20.1 (Base 65)
Growing Degree Days35.1 (Base 50)
Averaged from 24 records on April 24, 2013
WEATHER CONDITIONS BREAKOUT
WIND DIRECTION BREAKOUT
WEATHER BY HOUR - APRIL 24, 2013
[ °C ]   °F
Local TimeTemperatureDewpointHumidityBarometerVisibilityWind DirectionWind SpeedGust SpeedPrecipitationEventsConditions
1:54 AM82.0 °F71.1 °F69 %29.90 in10.0 miENE (60°)9.2 mphClear
2:54 AM82.0 °F72.0 °F71 %29.86 in10.0 miNE (50°)8.1 mphPartly Cloudy
3:54 AM81.0 °F73.0 °F77 %29.85 in10.0 miNE (50°)5.8 mphScattered Clouds
4:54 AM81.0 °F75.0 °F82 %29.84 in10.0 miENE (60°)6.9 mph0.00 inMostly Cloudy
5:54 AM80.1 °F73.9 °F81 %29.85 in10.0 miENE (60°)9.2 mphScattered Clouds
6:54 AM82.0 °F73.9 °F76 %29.87 in10.0 miENE (60°)9.2 mphScattered Clouds
7:54 AM81.0 °F73.0 °F77 %29.90 in10.0 miEast (90°)12.7 mph25.3 mph0.00 inScattered Clouds
8:54 AM86.0 °F72.0 °F63 %29.90 in10.0 miEast (80°)15.0 mph25.3 mphPartly Cloudy
9:54 AM87.1 °F71.1 °F59 %29.95 in10.0 miEast (80°)21.9 mph27.6 mphPartly Cloudy
10:54 AM89.1 °F73.0 °F59 %29.94 in10.0 miEast (90°)15.0 mph26.5 mphScattered Clouds
11:29 AM89.6 °F73.4 °F59 %29.96 in10.0 miEast (100°)17.3 mph24.2 mphMostly Cloudy
11:54 AM90.0 °F72.0 °F55 %29.93 in10.0 miEast (80°)18.4 mph26.5 mphScattered Clouds
12:54 PM90.0 °F72.0 °F55 %29.89 in10.0 miEast (80°)19.6 mph0.00 inPartly Cloudy
1:54 PM90.0 °F72.0 °F55 %29.87 in10.0 miEast (80°)20.7 mph26.5 mphPartly Cloudy
2:54 PM90.0 °F69.1 °F50 %29.86 in10.0 miENE (70°)17.3 mph25.3 mphPartly Cloudy
3:54 PM89.1 °F72.0 °F57 %29.86 in10.0 miEast (90°)15.0 mphPartly Cloudy
4:54 PM88.0 °F72.0 °F59 %29.85 in10.0 miEast (90°)13.8 mph23.0 mphPartly Cloudy
5:54 PM86.0 °F72.0 °F63 %29.85 in10.0 miEast (80°)13.8 mphPartly Cloudy
6:54 PM84.9 °F73.0 °F67 %29.86 in10.0 miENE (70°)13.8 mphScattered Clouds
7:54 PM84.0 °F73.0 °F69 %29.88 in10.0 miEast (80°)11.5 mphClear
8:54 PM84.0 °F73.9 °F72 %29.89 in10.0 miENE (70°)12.7 mphClear
9:54 PM84.0 °F73.0 °F69 %29.91 in10.0 miEast (80°)13.8 mphPartly Cloudy
10:54 PM82.9 °F73.9 °F74 %29.90 in10.0 miENE (70°)11.5 mphClear
11:54 PM82.9 °F75.0 °F77 %29.89 in10.0 miENE (70°)6.9 mphMostly Cloudy
Hourly data recorded from PGUM, located 4.39 miles away from Potts Junction, Guam







STORIES FROM OUR PARTNERS